TEJ102 SCEL-SCSE

Flight info

Callsign TEJ102
Flight time 0h 43m
Altitude 30000
Route DONTI5B DONTI UQ802 KUGAP KUGAP5
Aircraft CRJ9/M-SDFGIRWY/S

Departure

Time 2026-05-05 18:02
Airport Comodoro Arturo Merino Benítez International Airport (SCEL)

Arrival

Time 2026-05-05 18:45
Airport La Florida Airport (SCSE)
Time Latitude Longitude Altitude Speed Heading
2026-05-05 17:37 -33.39596 -70.79607 1563 ft 0 kts 177°
2026-05-05 17:40 -33.39590 -70.79453 1563 ft 0 kts 177°
2026-05-05 17:48 -33.39575 -70.79454 1563 ft 4 kts 178°
2026-05-05 17:48 -33.39547 -70.79455 1563 ft 4 kts 178°
2026-05-05 17:48 -33.39524 -70.79455 1563 ft 4 kts 193°
2026-05-05 17:48 -33.39509 -70.79440 1563 ft 4 kts 255°
2026-05-05 17:49 -33.39509 -70.79409 1563 ft 4 kts 273°
2026-05-05 17:49 -33.39509 -70.79396 1563 ft 0 kts 267°
2026-05-05 17:54 -33.39510 -70.79414 1563 ft 6 kts 267°
2026-05-05 17:54 -33.39513 -70.79493 1563 ft 13 kts 267°
2026-05-05 17:55 -33.39518 -70.79630 1563 ft 19 kts 267°
2026-05-05 17:55 -33.39524 -70.79784 1563 ft 18 kts 267°
2026-05-05 17:55 -33.39517 -70.79929 1563 ft 15 kts 310°
2026-05-05 17:55 -33.39444 -70.79950 1563 ft 11 kts 358°
2026-05-05 17:56 -33.39363 -70.79954 1563 ft 13 kts 358°
2026-05-05 17:56 -33.39268 -70.79958 1563 ft 15 kts 358°
2026-05-05 17:56 -33.39161 -70.79963 1563 ft 16 kts 358°
2026-05-05 17:56 -33.39042 -70.79968 1564 ft 18 kts 358°
2026-05-05 17:57 -33.38912 -70.79974 1564 ft 20 kts 358°
2026-05-05 17:57 -33.38772 -70.79981 1564 ft 21 kts 358°
2026-05-05 17:57 -33.38628 -70.79989 1564 ft 21 kts 357°
2026-05-05 17:57 -33.38484 -70.79997 1563 ft 21 kts 357°
2026-05-05 17:58 -33.38341 -70.80006 1563 ft 21 kts 357°
2026-05-05 17:58 -33.38196 -70.80014 1563 ft 21 kts 357°
2026-05-05 17:58 -33.38095 -70.80073 1564 ft 12 kts 274°
2026-05-05 17:58 -33.38071 -70.80128 1564 ft 4 kts 349°
2026-05-05 17:59 -33.38037 -70.80129 1564 ft 7 kts
2026-05-05 17:59 -33.37974 -70.80129 1564 ft 11 kts 357°
2026-05-05 17:59 -33.37884 -70.80135 1564 ft 15 kts 357°
2026-05-05 17:59 -33.37770 -70.80142 1564 ft 18 kts 357°
2026-05-05 18:00 -33.37633 -70.80151 1565 ft 21 kts 357°
2026-05-05 18:00 -33.37474 -70.80161 1565 ft 25 kts 357°
2026-05-05 18:00 -33.37297 -70.80168 1565 ft 26 kts
2026-05-05 18:00 -33.37121 -70.80172 1565 ft 25 kts 358°
2026-05-05 18:01 -33.37022 -70.80275 1568 ft 20 kts 242°
2026-05-05 18:01 -33.37112 -70.80343 1572 ft 14 kts 213°
2026-05-05 18:01 -33.37192 -70.80374 1571 ft 0 kts 178°
2026-05-05 18:01 -33.37247 -70.80372 1571 ft 32 kts 178°
2026-05-05 18:02 -33.37762 -70.80351 1570 ft 112 kts 178°
2026-05-05 18:02 -33.38742 -70.80292 1618 ft 167 kts 179°
2026-05-05 18:02 -33.40009 -70.80284 2232 ft 186 kts 181°
2026-05-05 18:02 -33.41272 -70.80252 3209 ft 186 kts 179°
2026-05-05 18:03 -33.42620 -70.80178 3970 ft 202 kts 178°
2026-05-05 18:03 -33.44073 -70.80157 4613 ft 220 kts 192°
2026-05-05 18:03 -33.45416 -70.81083 5228 ft 232 kts 235°
2026-05-05 18:03 -33.45924 -70.82859 6118 ft 229 kts 276°
2026-05-05 18:04 -33.45531 -70.84679 6998 ft 228 kts 291°
2026-05-05 18:04 -33.45146 -70.86586 7620 ft 247 kts 282°
2026-05-05 18:04 -33.45041 -70.88720 8226 ft 267 kts 271°
2026-05-05 18:04 -33.45298 -70.90988 8911 ft 283 kts 262°
2026-05-05 18:05 -33.45817 -70.93287 9816 ft 288 kts 259°
2026-05-05 18:05 -33.46178 -70.95630 10611 ft 282 kts 280°
2026-05-05 18:05 -33.45484 -70.97732 11585 ft 271 kts 312°
2026-05-05 18:05 -33.44101 -70.99266 12443 ft 272 kts 322°
2026-05-05 18:06 -33.42532 -71.00543 13237 ft 277 kts 334°
2026-05-05 18:06 -33.41929 -71.00849 13527 ft 278 kts 338°
2026-05-05 18:06 -33.38787 -71.02058 14402 ft 295 kts 341°
2026-05-05 18:06 -33.36773 -71.02731 15002 ft 305 kts 341°
2026-05-05 18:07 -33.34710 -71.03442 15646 ft 312 kts 341°
2026-05-05 18:07 -33.32649 -71.04221 16298 ft 316 kts 339°
2026-05-05 18:07 -33.30498 -71.05080 16524 ft 336 kts 339°
2026-05-05 18:07 -33.28262 -71.05968 17245 ft 339 kts 339°
2026-05-05 18:08 -33.25998 -71.06848 17923 ft 345 kts 339°
2026-05-05 18:08 -33.23706 -71.07741 18565 ft 348 kts 338°
2026-05-05 18:08 -33.21396 -71.08639 19174 ft 351 kts 338°
2026-05-05 18:08 -33.19063 -71.09537 19794 ft 353 kts 338°
2026-05-05 18:09 -33.16725 -71.10465 20332 ft 357 kts 337°
2026-05-05 18:09 -33.14368 -71.11381 20818 ft 361 kts 337°
2026-05-05 18:09 -33.11967 -71.12318 21322 ft 364 kts 336°
2026-05-05 18:09 -33.09552 -71.13268 21872 ft 367 kts 337°
2026-05-05 18:10 -33.07121 -71.14209 22386 ft 369 kts 336°
2026-05-05 18:10 -33.04673 -71.15160 22929 ft 370 kts 336°
2026-05-05 18:10 -33.03046 -71.15790 23312 ft 371 kts 336°
2026-05-05 18:10 -33.00587 -71.16738 23814 ft 372 kts 336°
2026-05-05 18:11 -32.98123 -71.17690 24258 ft 373 kts 336°
2026-05-05 18:11 -32.95632 -71.18605 24612 ft 379 kts 340°
2026-05-05 18:11 -32.92987 -71.19061 24975 ft 389 kts 348°
2026-05-05 18:11 -32.90268 -71.19196 25383 ft 394 kts 352°
2026-05-05 18:12 -32.87509 -71.19192 25766 ft 397 kts 352°
2026-05-05 18:12 -32.84734 -71.19164 26118 ft 400 kts 352°
2026-05-05 18:12 -32.81951 -71.19175 26464 ft 401 kts 352°
2026-05-05 18:12 -32.79153 -71.19234 26804 ft 403 kts 351°
2026-05-05 18:13 -32.76336 -71.19292 27141 ft 405 kts 351°
2026-05-05 18:13 -32.73507 -71.19345 27461 ft 407 kts 351°
2026-05-05 18:13 -32.70665 -71.19397 27776 ft 410 kts 351°
2026-05-05 18:13 -32.67807 -71.19451 28085 ft 412 kts 351°
2026-05-05 18:14 -32.64962 -71.19502 28399 ft 414 kts 351°
2026-05-05 18:14 -32.62070 -71.19555 28685 ft 416 kts 351°
2026-05-05 18:14 -32.59166 -71.19609 28984 ft 418 kts 351°
2026-05-05 18:14 -32.56249 -71.19662 29296 ft 420 kts 350°
2026-05-05 18:15 -32.53320 -71.19714 29576 ft 422 kts 350°
2026-05-05 18:15 -32.50379 -71.19768 29831 ft 424 kts 350°
2026-05-05 18:15 -32.47408 -71.19824 29925 ft 429 kts 351°
2026-05-05 18:16 -32.41337 -71.19938 29989 ft 442 kts 351°
2026-05-05 18:16 -32.35183 -71.20048 29923 ft 443 kts 351°
2026-05-05 18:17 -32.29065 -71.20157 29908 ft 437 kts 351°
2026-05-05 18:17 -32.23023 -71.20269 29964 ft 432 kts 351°
2026-05-05 18:18 -32.17032 -71.20374 29998 ft 429 kts 351°
2026-05-05 18:18 -32.11087 -71.20483 30004 ft 426 kts 351°
2026-05-05 18:19 -32.05179 -71.20590 29996 ft 423 kts 351°
2026-05-05 18:19 -31.99302 -71.20692 29991 ft 421 kts 351°
2026-05-05 18:20 -31.93458 -71.20798 29981 ft 419 kts 351°
2026-05-05 18:20 -31.87644 -71.20906 29993 ft 417 kts 351°
2026-05-05 18:21 -31.81851 -71.21001 29991 ft 416 kts 351°
2026-05-05 18:21 -31.76074 -71.21038 29975 ft 416 kts 352°
2026-05-05 18:22 -31.70275 -71.20697 29983 ft 417 kts 355°
2026-05-05 18:22 -31.64476 -71.20263 29991 ft 416 kts 354°
2026-05-05 18:23 -31.58726 -71.19906 29569 ft 420 kts 354°
2026-05-05 18:23 -31.55791 -71.19731 29158 ft 424 kts 354°
2026-05-05 18:23 -31.52834 -71.19549 28758 ft 427 kts 355°
2026-05-05 18:23 -31.49852 -71.19369 28392 ft 431 kts 355°
2026-05-05 18:24 -31.46849 -71.19186 28016 ft 434 kts 355°
2026-05-05 18:24 -31.43826 -71.19007 27654 ft 436 kts 355°
2026-05-05 18:24 -31.40780 -71.18824 27298 ft 439 kts 355°
2026-05-05 18:24 -31.37718 -71.18636 26932 ft 441 kts 355°
2026-05-05 18:25 -31.34691 -71.18452 26528 ft 433 kts 355°
2026-05-05 18:25 -31.32694 -71.18331 26270 ft 433 kts 355°
2026-05-05 18:25 -31.28671 -71.18093 25788 ft 432 kts 355°
2026-05-05 18:25 -31.25670 -71.17913 25398 ft 432 kts 355°
2026-05-05 18:26 -31.22706 -71.17732 25016 ft 431 kts 355°
2026-05-05 18:26 -31.19708 -71.17552 24639 ft 431 kts 355°
2026-05-05 18:26 -31.16689 -71.17377 24229 ft 438 kts 355°
2026-05-05 18:26 -31.13610 -71.17195 23796 ft 446 kts 356°
2026-05-05 18:27 -31.10489 -71.17004 23354 ft 452 kts 356°
2026-05-05 18:27 -31.07366 -71.16812 22866 ft 439 kts 356°
2026-05-05 18:27 -31.04377 -71.16636 22322 ft 420 kts 356°
2026-05-05 18:27 -31.01513 -71.16457 21844 ft 404 kts 356°
2026-05-05 18:28 -30.96074 -71.16121 20912 ft 379 kts 356°
2026-05-05 18:28 -30.93479 -71.15975 20473 ft 369 kts 356°
2026-05-05 18:28 -30.90943 -71.15832 20045 ft 360 kts 357°
2026-05-05 18:29 -30.88496 -71.15685 19669 ft 352 kts 357°
2026-05-05 18:29 -30.86072 -71.15537 19286 ft 345 kts 357°
2026-05-05 18:29 -30.83700 -71.15398 18903 ft 339 kts 357°
2026-05-05 18:29 -30.81364 -71.15257 18530 ft 333 kts 358°
2026-05-05 18:30 -30.79047 -71.15119 18130 ft 334 kts 358°
2026-05-05 18:30 -30.76724 -71.14983 17704 ft 335 kts 358°
2026-05-05 18:30 -30.74392 -71.14846 17293 ft 336 kts 358°
2026-05-05 18:30 -30.72054 -71.14701 16886 ft 337 kts 358°
2026-05-05 18:31 -30.69708 -71.14568 16495 ft 338 kts 358°
2026-05-05 18:31 -30.67355 -71.14428 16090 ft 338 kts 359°
2026-05-05 18:31 -30.65000 -71.14289 15697 ft 340 kts 359°
2026-05-05 18:31 -30.62630 -71.14146 15304 ft 341 kts 359°
2026-05-05 18:32 -30.60255 -71.14002 14927 ft 342 kts 359°
2026-05-05 18:32 -30.57875 -71.13871 14542 ft 342 kts 359°
2026-05-05 18:32 -30.55493 -71.13745 14168 ft 343 kts 359°
2026-05-05 18:32 -30.53139 -71.13624 13799 ft 343 kts 359°
2026-05-05 18:33 -30.50769 -71.13494 13408 ft 338 kts 360°
2026-05-05 18:33 -30.48440 -71.13356 13036 ft 332 kts
2026-05-05 18:33 -30.46158 -71.13216 12674 ft 326 kts
2026-05-05 18:33 -30.43913 -71.13079 12319 ft 320 kts
2026-05-05 18:34 -30.41705 -71.12944 11971 ft 314 kts
2026-05-05 18:34 -30.39550 -71.12814 11627 ft 307 kts
2026-05-05 18:34 -30.37432 -71.12689 11263 ft 302 kts
2026-05-05 18:34 -30.35351 -71.12574 10930 ft 297 kts
2026-05-05 18:35 -30.33317 -71.12454 10651 ft 289 kts
2026-05-05 18:35 -30.31348 -71.12335 10326 ft 278 kts
2026-05-05 18:35 -30.29440 -71.12216 10013 ft 272 kts
2026-05-05 18:35 -30.27565 -71.12104 9678 ft 268 kts
2026-05-05 18:36 -30.25710 -71.11980 9364 ft 266 kts
2026-05-05 18:36 -30.24006 -71.11186 9043 ft 268 kts 32°
2026-05-05 18:36 -30.22605 -71.09805 8771 ft 267 kts 42°
2026-05-05 18:36 -30.21369 -71.08211 8532 ft 266 kts 47°
2026-05-05 18:37 -30.20199 -71.06558 8246 ft 265 kts 47°
2026-05-05 18:37 -30.19023 -71.04921 8013 ft 264 kts 46°
2026-05-05 18:37 -30.17819 -71.03324 7780 ft 263 kts 45°
2026-05-05 18:37 -30.16597 -71.01751 7550 ft 263 kts 45°
2026-05-05 18:38 -30.15384 -71.00175 7326 ft 262 kts 46°
2026-05-05 18:38 -30.14171 -70.98601 7143 ft 262 kts 45°
2026-05-05 18:38 -30.12945 -70.97051 6895 ft 261 kts 41°
2026-05-05 18:38 -30.11444 -70.95908 6681 ft 258 kts 26°
2026-05-05 18:39 -30.09833 -70.95006 6425 ft 257 kts 22°
2026-05-05 18:39 -30.08207 -70.94162 6137 ft 255 kts 22°
2026-05-05 18:39 -30.06551 -70.93438 5805 ft 254 kts
2026-05-05 18:39 -30.04841 -70.93747 5357 ft 252 kts 331°
2026-05-05 18:40 -30.03387 -70.94849 5029 ft 247 kts 323°
2026-05-05 18:40 -30.02074 -70.96081 4736 ft 240 kts 316°
2026-05-05 18:40 -30.01128 -70.97629 4407 ft 233 kts 299°
2026-05-05 18:40 -30.00415 -70.99251 4115 ft 226 kts 296°
2026-05-05 18:41 -29.99761 -71.00871 3802 ft 219 kts 295°
2026-05-05 18:41 -29.99128 -71.02449 3503 ft 214 kts 295°
2026-05-05 18:41 -29.98503 -71.03978 3199 ft 207 kts 295°
2026-05-05 18:41 -29.97892 -71.05430 2919 ft 194 kts 295°
2026-05-05 18:42 -29.97323 -71.06763 2630 ft 175 kts 295°
2026-05-05 18:42 -29.96810 -71.07954 2402 ft 157 kts 295°
2026-05-05 18:42 -29.96335 -71.09051 2181 ft 149 kts 296°
2026-05-05 18:42 -29.95886 -71.10095 1978 ft 141 kts 295°
2026-05-05 18:43 -29.95466 -71.11088 1783 ft 135 kts 294°
2026-05-05 18:43 -29.95055 -71.12049 1572 ft 135 kts 294°
2026-05-05 18:43 -29.94629 -71.13010 1467 ft 133 kts 295°
2026-05-05 18:43 -29.94192 -71.13976 1359 ft 138 kts 295°
2026-05-05 18:44 -29.93773 -71.14965 1284 ft 135 kts 295°
2026-05-05 18:44 -29.93369 -71.15923 1172 ft 128 kts 294°
2026-05-05 18:44 -29.92980 -71.16839 947 ft 127 kts 295°
2026-05-05 18:44 -29.92603 -71.17745 752 ft 124 kts 295°
2026-05-05 18:45 -29.92210 -71.18621 579 ft 121 kts 296°
2026-05-05 18:45 -29.91857 -71.19442 476 ft 104 kts 296°
2026-05-05 18:45 -29.91609 -71.20042 474 ft 62 kts 296°
2026-05-05 18:45 -29.91456 -71.20389 475 ft 41 kts 296°
2026-05-05 18:46 -29.91340 -71.20669 476 ft 37 kts 296°
2026-05-05 18:46 -29.91275 -71.20860 475 ft 10 kts 334°
2026-05-05 18:46 -29.91253 -71.20857 477 ft 1 kts 47°
2026-05-05 18:46 -29.91252 -71.20833 477 ft 6 kts 111°
2026-05-05 18:47 -29.91292 -71.20755 473 ft 16 kts 121°
2026-05-05 18:47 -29.91344 -71.20642 480 ft 16 kts 116°
2026-05-05 18:47 -29.91395 -71.20528 477 ft 16 kts 117°
2026-05-05 18:47 -29.91449 -71.20406 475 ft 18 kts 117°
2026-05-05 18:48 -29.91515 -71.20286 479 ft 18 kts 146°
2026-05-05 18:48 -29.91602 -71.20304 475 ft 11 kts 206°
2026-05-05 18:48 -29.91660 -71.20336 478 ft 2 kts 206°
2026-05-05 18:48 -29.91669 -71.20341 478 ft 0 kts 205°